THY5JB LICR-LTFJ

Flight info

Callsign THY5JB
Flight time 1h 43m
Altitude 38000
Route CDC DCT GEMVI DCT LATAN/N0445F390 UL869 KRK UM600 TSL UM603 PEREN UN644 DIGTI UT162 DRAMO
Aircraft B738/M-SDE2E3FGHIRWXY/LB1

Departure

Time 2026-04-21 18:04
Airport Reggio Calabria Airport (LICR)

Arrival

Time 2026-04-21 19:47
Airport Istanbul Sabiha Gökçen International Airport (LTFJ)
Time Latitude Longitude Altitude Speed Heading
2026-04-21 16:53 38.07417 15.65258 60 ft 0 kts 86°
2026-04-21 17:50 38.07417 15.65257 60 ft 0 kts 86°
2026-04-21 17:51 38.07416 15.65247 61 ft 1 kts 84°
2026-04-21 17:51 38.07415 15.65227 56 ft 2 kts 84°
2026-04-21 17:51 38.07414 15.65206 57 ft 2 kts 136°
2026-04-21 17:51 38.07418 15.65202 58 ft 0 kts 160°
2026-04-21 17:55 38.07394 15.65213 59 ft 7 kts 157°
2026-04-21 17:55 38.07325 15.65257 57 ft 15 kts 153°
2026-04-21 17:55 38.07211 15.65333 53 ft 22 kts 151°
2026-04-21 17:55 38.07077 15.65428 50 ft 15 kts 173°
2026-04-21 17:56 38.07053 15.65413 56 ft 3 kts 235°
2026-04-21 17:56 38.07050 15.65377 56 ft 5 kts 282°
2026-04-21 17:56 38.07066 15.65318 53 ft 9 kts 291°
2026-04-21 17:56 38.07099 15.65226 51 ft 13 kts 293°
2026-04-21 17:57 38.07099 15.65207 53 ft 2 kts 252°
2026-04-21 17:57 38.07081 15.65194 48 ft 4 kts 191°
2026-04-21 17:57 38.07043 15.65203 52 ft 7 kts 159°
2026-04-21 17:57 38.06983 15.65243 53 ft 12 kts 154°
2026-04-21 17:58 38.06889 15.65305 51 ft 18 kts 152°
2026-04-21 17:58 38.06756 15.65382 43 ft 23 kts 164°
2026-04-21 17:58 38.06596 15.65418 41 ft 23 kts 153°
2026-04-21 17:58 38.06512 15.65507 37 ft 6 kts 103°
2026-04-21 17:59 38.06515 15.65530 38 ft 0 kts 61°
2026-04-21 18:02 38.06515 15.65531 38 ft 0 kts 56°
2026-04-21 18:03 38.06520 15.65530 38 ft 1 kts
2026-04-21 18:03 38.06564 15.65514 38 ft 15 kts 336°
2026-04-21 18:03 38.06888 15.65306 51 ft 90 kts 332°
2026-04-21 18:03 38.07649 15.64817 89 ft 151 kts 334°
2026-04-21 18:04 38.08688 15.64181 576 ft 170 kts 335°
2026-04-21 18:04 38.09848 15.63531 1108 ft 196 kts 337°
2026-04-21 18:04 38.11131 15.62849 1957 ft 194 kts 336°
2026-04-21 18:04 38.12433 15.62147 2491 ft 216 kts 336°
2026-04-21 18:05 38.13904 15.61345 2736 ft 245 kts 336°
2026-04-21 18:05 38.15525 15.60452 3355 ft 258 kts 335°
2026-04-21 18:05 38.17181 15.59549 4273 ft 261 kts 336°
2026-04-21 18:05 38.18970 15.59180 5165 ft 268 kts
2026-04-21 18:06 38.20722 15.60069 6009 ft 279 kts 33°
2026-04-21 18:06 38.22066 15.61897 6807 ft 289 kts 54°
2026-04-21 18:06 38.23087 15.64109 7636 ft 293 kts 59°
2026-04-21 18:06 38.24051 15.66417 8446 ft 297 kts 60°
2026-04-21 18:07 38.25019 15.68790 9326 ft 300 kts 59°
2026-04-21 18:07 38.25971 15.71122 10117 ft 303 kts 59°
2026-04-21 18:07 38.26975 15.73561 10526 ft 322 kts 59°
2026-04-21 18:07 38.28074 15.76209 10762 ft 345 kts 59°
2026-04-21 18:08 38.29212 15.78941 11319 ft 354 kts 59°
2026-04-21 18:08 38.30376 15.81733 12070 ft 358 kts 59°
2026-04-21 18:08 38.31549 15.84542 12882 ft 362 kts 59°
2026-04-21 18:08 38.32742 15.87397 13653 ft 368 kts 58°
2026-04-21 18:09 38.33544 15.89312 14129 ft 371 kts 58°
2026-04-21 18:09 38.34762 15.92222 14902 ft 374 kts 58°
2026-04-21 18:09 38.35985 15.95148 15692 ft 376 kts 58°
2026-04-21 18:09 38.37221 15.98103 16463 ft 380 kts 58°
2026-04-21 18:10 38.38474 16.01100 17214 ft 384 kts 58°
2026-04-21 18:10 38.39733 16.04116 17971 ft 388 kts 58°
2026-04-21 18:10 38.41007 16.07168 18651 ft 391 kts 58°
2026-04-21 18:10 38.42291 16.10249 19297 ft 395 kts 58°
2026-04-21 18:11 38.43589 16.13365 19939 ft 399 kts 58°
2026-04-21 18:11 38.44896 16.16508 20585 ft 403 kts 58°
2026-04-21 18:11 38.46212 16.19674 21214 ft 406 kts 58°
2026-04-21 18:11 38.47543 16.22881 21814 ft 410 kts 58°
2026-04-21 18:12 38.48882 16.26108 22417 ft 414 kts 58°
2026-04-21 18:12 38.50237 16.29379 23014 ft 417 kts 58°
2026-04-21 18:12 38.51595 16.32662 23571 ft 421 kts 58°
2026-04-21 18:12 38.52969 16.35984 24050 ft 425 kts 58°
2026-04-21 18:13 38.54351 16.39330 24495 ft 429 kts 58°
2026-04-21 18:13 38.55745 16.42709 24955 ft 432 kts 58°
2026-04-21 18:13 38.57154 16.46129 25417 ft 435 kts 58°
2026-04-21 18:13 38.58565 16.49557 25873 ft 438 kts 58°
2026-04-21 18:14 38.61424 16.56514 26694 ft 446 kts 58°
2026-04-21 18:14 38.62873 16.60044 27118 ft 449 kts 58°
2026-04-21 18:14 38.64328 16.63597 27551 ft 452 kts 57°
2026-04-21 18:15 38.65792 16.67173 27959 ft 455 kts 57°
2026-04-21 18:15 38.67261 16.70765 28363 ft 458 kts 57°
2026-04-21 18:15 38.68741 16.74391 28753 ft 461 kts 57°
2026-04-21 18:15 38.70228 16.78036 29143 ft 464 kts 57°
2026-04-21 18:16 38.71724 16.81710 29511 ft 466 kts 57°
2026-04-21 18:16 38.73229 16.85409 29869 ft 469 kts 57°
2026-04-21 18:16 38.74738 16.89121 30187 ft 472 kts 57°
2026-04-21 18:16 38.76260 16.92872 30476 ft 474 kts 57°
2026-04-21 18:17 38.77780 16.96621 30769 ft 476 kts 57°
2026-04-21 18:17 38.79311 17.00403 31058 ft 478 kts 57°
2026-04-21 18:17 38.80846 17.04197 31334 ft 481 kts 57°
2026-04-21 18:17 38.82402 17.08051 31599 ft 483 kts 57°
2026-04-21 18:18 38.83949 17.11885 31884 ft 484 kts 57°
2026-04-21 18:18 38.85481 17.15689 32259 ft 484 kts 57°
2026-04-21 18:18 38.87037 17.19560 32663 ft 482 kts 57°
2026-04-21 18:18 38.88577 17.23395 33047 ft 482 kts 57°
2026-04-21 18:19 38.90111 17.27216 33390 ft 482 kts 57°
2026-04-21 18:19 38.91644 17.31041 33714 ft 482 kts 57°
2026-04-21 18:19 38.93177 17.34869 34051 ft 482 kts 57°
2026-04-21 18:19 38.94706 17.38691 34346 ft 481 kts 57°
2026-04-21 18:20 38.96232 17.42511 34633 ft 481 kts 57°
2026-04-21 18:20 38.97766 17.46357 34916 ft 482 kts 57°
2026-04-21 18:20 38.99292 17.50188 35202 ft 481 kts 58°
2026-04-21 18:20 39.00819 17.54024 35485 ft 481 kts 58°
2026-04-21 18:21 39.02341 17.57855 35749 ft 481 kts 58°
2026-04-21 18:21 39.03861 17.61685 36021 ft 481 kts 58°
2026-04-21 18:21 39.05382 17.65523 36291 ft 481 kts 58°
2026-04-21 18:21 39.06902 17.69360 36545 ft 481 kts 58°
2026-04-21 18:22 39.08421 17.73201 36801 ft 481 kts 58°
2026-04-21 18:22 39.09932 17.77027 37058 ft 481 kts 58°
2026-04-21 18:22 39.11291 17.80983 37289 ft 485 kts 66°
2026-04-21 18:22 39.12191 17.85191 37515 ft 490 kts 75°
2026-04-21 18:23 39.12859 17.89495 37790 ft 489 kts 76°
2026-04-21 18:23 39.13481 17.93800 37925 ft 491 kts 77°
2026-04-21 18:23 39.14105 17.98151 37915 ft 493 kts 76°
2026-04-21 18:24 39.15376 18.06795 37919 ft 490 kts 76°
2026-04-21 18:24 39.16682 18.15393 37919 ft 487 kts 76°
2026-04-21 18:25 39.17997 18.23987 37925 ft 485 kts 76°
2026-04-21 18:25 39.19296 18.32523 37927 ft 484 kts 76°
2026-04-21 18:26 39.20584 18.41047 37936 ft 484 kts 76°
2026-04-21 18:26 39.21866 18.49584 37938 ft 485 kts 76°
2026-04-21 18:27 39.23145 18.58145 37944 ft 487 kts 76°
2026-04-21 18:27 39.24424 18.66751 37948 ft 489 kts 76°
2026-04-21 18:28 39.25697 18.75367 37946 ft 490 kts 76°
2026-04-21 18:28 39.26967 18.84005 37948 ft 492 kts 76°
2026-04-21 18:29 39.28231 18.92647 37953 ft 493 kts 76°
2026-04-21 18:29 39.29505 19.01400 37950 ft 494 kts 76°
2026-04-21 18:30 39.30774 19.10115 37950 ft 494 kts 76°
2026-04-21 18:30 39.32041 19.18830 37955 ft 493 kts 76°
2026-04-21 18:31 39.33297 19.27532 37959 ft 492 kts 77°
2026-04-21 18:31 39.34542 19.36203 37955 ft 491 kts 77°
2026-04-21 18:32 39.35773 19.44832 37969 ft 490 kts 77°
2026-04-21 18:32 39.36986 19.53376 37960 ft 489 kts 77°
2026-04-21 18:33 39.38207 19.62019 37969 ft 488 kts 77°
2026-04-21 18:33 39.39369 19.70667 37970 ft 488 kts 78°
2026-04-21 18:34 39.40516 19.79313 37969 ft 487 kts 77°
2026-04-21 18:34 39.41726 19.87924 37970 ft 487 kts 77°
2026-04-21 18:35 39.42725 19.95089 37967 ft 487 kts 77°
2026-04-21 18:35 39.44126 20.05181 37969 ft 487 kts 75°
2026-04-21 18:36 39.46342 20.13370 37989 ft 481 kts 62°
2026-04-21 18:36 39.49161 20.21229 37985 ft 482 kts 61°
2026-04-21 18:37 39.51936 20.29130 37995 ft 484 kts 62°
2026-04-21 18:37 39.54289 20.35989 38000 ft 484 kts 62°
2026-04-21 18:38 39.57051 20.44063 38008 ft 486 kts 62°
2026-04-21 18:38 39.59813 20.52133 37997 ft 488 kts 63°
2026-04-21 18:39 39.62562 20.60182 38003 ft 489 kts 63°
2026-04-21 18:39 39.65305 20.68244 38006 ft 489 kts 63°
2026-04-21 18:40 39.68048 20.76328 38001 ft 489 kts 63°
2026-04-21 18:40 39.70348 20.83114 37988 ft 489 kts 62°
2026-04-21 18:41 39.73685 20.92390 37988 ft 488 kts 60°
2026-04-21 18:41 39.76625 21.00399 38007 ft 486 kts 61°
2026-04-21 18:42 39.79513 21.08347 37994 ft 486 kts 61°
2026-04-21 18:42 39.82383 21.16314 38006 ft 486 kts 61°
2026-04-21 18:43 39.85240 21.24273 37987 ft 485 kts 61°
2026-04-21 18:43 39.88110 21.32288 37981 ft 486 kts 61°
2026-04-21 18:44 39.90964 21.40279 37981 ft 486 kts 61°
2026-04-21 18:44 39.93807 21.48260 37978 ft 487 kts 61°
2026-04-21 18:45 39.96661 21.56292 37947 ft 488 kts 61°
2026-04-21 18:45 39.99503 21.64286 37970 ft 488 kts 61°
2026-04-21 18:46 40.02365 21.72355 37975 ft 488 kts 61°
2026-04-21 18:46 40.05213 21.80408 37962 ft 488 kts 61°
2026-04-21 18:47 40.08050 21.88455 37958 ft 488 kts 62°
2026-04-21 18:47 40.10897 21.96551 37977 ft 487 kts 62°
2026-04-21 18:48 40.13700 22.04602 37981 ft 487 kts 62°
2026-04-21 18:48 40.16457 22.12687 37960 ft 487 kts 62°
2026-04-21 18:49 40.19199 22.20759 37975 ft 486 kts 62°
2026-04-21 18:49 40.21501 22.27534 37980 ft 485 kts 62°
2026-04-21 18:50 40.24676 22.36897 37975 ft 485 kts 62°
2026-04-21 18:50 40.27406 22.44970 37973 ft 484 kts 62°
2026-04-21 18:51 40.30124 22.53019 37981 ft 483 kts 62°
2026-04-21 18:51 40.32871 22.61096 37973 ft 483 kts 62°
2026-04-21 18:52 40.35589 22.69102 37966 ft 483 kts 62°
2026-04-21 18:52 40.38317 22.77160 37957 ft 484 kts 62°
2026-04-21 18:53 40.41064 22.85303 37949 ft 485 kts 62°
2026-04-21 18:53 40.43789 22.93400 37947 ft 486 kts 63°
2026-04-21 18:54 40.46207 23.01721 37930 ft 492 kts 75°
2026-04-21 18:54 40.47498 23.10581 37943 ft 494 kts 78°
2026-04-21 18:55 40.48498 23.18033 37956 ft 495 kts 77°
2026-04-21 18:55 40.49967 23.28427 37949 ft 495 kts 77°
2026-04-21 18:56 40.51247 23.37265 37966 ft 495 kts 77°
2026-04-21 18:56 40.52531 23.46205 37965 ft 495 kts 77°
2026-04-21 18:57 40.53810 23.55144 37966 ft 495 kts 77°
2026-04-21 18:57 40.55079 23.64021 37965 ft 494 kts 77°
2026-04-21 18:58 40.56344 23.72916 37955 ft 494 kts 77°
2026-04-21 18:58 40.57395 23.80355 37962 ft 493 kts 77°
2026-04-21 18:59 40.58642 23.89228 37957 ft 492 kts 77°
2026-04-21 18:59 40.59931 23.98074 37953 ft 491 kts 73°
2026-04-21 19:00 40.61878 24.06711 37961 ft 488 kts 69°
2026-04-21 19:00 40.63975 24.15227 37961 ft 488 kts 69°
2026-04-21 19:01 40.66015 24.23755 37964 ft 489 kts 70°
2026-04-21 19:01 40.68010 24.32327 37959 ft 489 kts 70°
2026-04-21 19:02 40.69988 24.40896 37957 ft 490 kts 70°
2026-04-21 19:02 40.71982 24.49558 37955 ft 490 kts 70°
2026-04-21 19:03 40.73971 24.58221 37957 ft 491 kts 70°
2026-04-21 19:03 40.75961 24.66913 37957 ft 493 kts 70°
2026-04-21 19:04 40.77938 24.75576 37957 ft 493 kts 70°
2026-04-21 19:04 40.79930 24.84311 37969 ft 494 kts 70°
2026-04-21 19:05 40.81903 24.92992 37954 ft 495 kts 70°
2026-04-21 19:05 40.83872 25.01694 37980 ft 495 kts 70°
2026-04-21 19:06 40.85844 25.10443 37982 ft 495 kts 70°
2026-04-21 19:06 40.87805 25.19183 37985 ft 495 kts 71°
2026-04-21 19:07 40.89758 25.27913 37984 ft 495 kts 71°
2026-04-21 19:07 40.91703 25.36639 37987 ft 494 kts 71°
2026-04-21 19:08 40.93655 25.45423 37991 ft 494 kts 71°
2026-04-21 19:08 40.95581 25.54120 37985 ft 493 kts 71°
2026-04-21 19:09 40.97516 25.62896 37982 ft 493 kts 71°
2026-04-21 19:09 40.99426 25.71598 37979 ft 493 kts 71°
2026-04-21 19:10 41.01334 25.80317 37977 ft 493 kts 71°
2026-04-21 19:10 41.03229 25.89020 37977 ft 492 kts 71°
2026-04-21 19:11 41.05133 25.97796 37985 ft 492 kts 71°
2026-04-21 19:11 41.07026 26.06559 37992 ft 492 kts 71°
2026-04-21 19:12 41.08594 26.13841 37988 ft 492 kts 71°
2026-04-21 19:12 41.10780 26.24033 37987 ft 492 kts 71°
2026-04-21 19:12 41.11475 26.28466 37985 ft 495 kts 83°
2026-04-21 19:13 41.11487 26.33050 38008 ft 496 kts 95°
2026-04-21 19:13 41.10877 26.37526 37985 ft 495 kts 108°
2026-04-21 19:13 41.09651 26.41785 38012 ft 493 kts 115°
2026-04-21 19:14 41.06859 26.50151 37990 ft 494 kts 115°
2026-04-21 19:14 41.05507 26.54347 37684 ft 499 kts 114°
2026-04-21 19:14 41.04161 26.58684 37116 ft 500 kts 111°
2026-04-21 19:14 41.03372 26.63138 36521 ft 499 kts 94°
2026-04-21 19:15 41.03352 26.67710 35972 ft 495 kts 86°
2026-04-21 19:15 41.03513 26.72267 35300 ft 496 kts 85°
2026-04-21 19:15 41.03688 26.76831 34633 ft 498 kts 86°
2026-04-21 19:15 41.03830 26.81421 33918 ft 501 kts 86°
2026-04-21 19:16 41.03933 26.86072 33122 ft 502 kts 87°
2026-04-21 19:16 41.04014 26.90660 32653 ft 496 kts 88°
2026-04-21 19:16 41.04054 26.95203 32114 ft 492 kts 89°
2026-04-21 19:16 41.04064 26.99734 31605 ft 488 kts 89°
2026-04-21 19:17 41.04062 27.07205 30787 ft 481 kts 89°
2026-04-21 19:17 41.04064 27.11602 30322 ft 477 kts 89°
2026-04-21 19:17 41.04068 27.15973 29829 ft 473 kts 89°
2026-04-21 19:18 41.04075 27.20314 29281 ft 469 kts 89°
2026-04-21 19:18 41.04081 27.24614 28788 ft 464 kts 89°
2026-04-21 19:18 41.04086 27.28858 28264 ft 459 kts 89°
2026-04-21 19:18 41.04089 27.33072 27738 ft 456 kts 89°
2026-04-21 19:19 41.04091 27.37256 27214 ft 453 kts 89°
2026-04-21 19:19 41.04091 27.41458 26683 ft 449 kts 89°
2026-04-21 19:19 41.04090 27.45607 26170 ft 446 kts 89°
2026-04-21 19:19 41.04023 27.49698 25657 ft 443 kts 95°
2026-04-21 19:20 41.03513 27.53704 25168 ft 440 kts 103°
2026-04-21 19:20 41.02835 27.57630 24664 ft 437 kts 104°
2026-04-21 19:20 41.02124 27.61532 24169 ft 434 kts 104°
2026-04-21 19:20 41.01415 27.65405 23678 ft 432 kts 104°
2026-04-21 19:21 41.00717 27.69265 23118 ft 429 kts 104°
2026-04-21 19:21 41.00025 27.73154 22540 ft 426 kts 104°
2026-04-21 19:21 40.99356 27.76957 21987 ft 424 kts 103°
2026-04-21 19:21 40.98695 27.80742 21434 ft 421 kts 103°
2026-04-21 19:22 40.98040 27.84505 20893 ft 418 kts 103°
2026-04-21 19:22 40.97389 27.88238 20366 ft 415 kts 103°
2026-04-21 19:22 40.96741 27.91956 19807 ft 413 kts 103°
2026-04-21 19:22 40.96098 27.95636 19277 ft 411 kts 103°
2026-04-21 19:23 40.95454 27.99312 18747 ft 408 kts 104°
2026-04-21 19:23 40.94814 28.02958 18226 ft 406 kts 104°
2026-04-21 19:23 40.94167 28.06634 17624 ft 403 kts 104°
2026-04-21 19:23 40.93533 28.10226 17041 ft 401 kts 104°
2026-04-21 19:24 40.92902 28.13801 16470 ft 398 kts 104°
2026-04-21 19:24 40.92270 28.17370 15906 ft 396 kts 104°
2026-04-21 19:24 40.91637 28.20937 15351 ft 393 kts 104°
2026-04-21 19:24 40.91016 28.24434 14812 ft 391 kts 104°
2026-04-21 19:25 40.90393 28.27933 14295 ft 388 kts 104°
2026-04-21 19:25 40.89782 28.31357 14087 ft 376 kts 104°
2026-04-21 19:25 40.89193 28.34657 13903 ft 364 kts 104°
2026-04-21 19:25 40.88592 28.38011 13048 ft 372 kts 104°
2026-04-21 19:26 40.87994 28.41341 12182 ft 379 kts 104°
2026-04-21 19:26 40.87390 28.44699 11345 ft 385 kts 104°
2026-04-21 19:26 40.86759 28.48202 10475 ft 390 kts 104°
2026-04-21 19:26 40.86127 28.51706 9612 ft 393 kts 104°
2026-04-21 19:27 40.85490 28.55232 8693 ft 395 kts 104°
2026-04-21 19:27 40.84852 28.58761 7803 ft 397 kts 104°
2026-04-21 19:27 40.84208 28.62315 6938 ft 397 kts 104°
2026-04-21 19:27 40.83567 28.65842 6372 ft 390 kts 105°
2026-04-21 19:28 40.82950 28.69240 6235 ft 370 kts 105°
2026-04-21 19:28 40.82364 28.72459 6100 ft 353 kts 105°
2026-04-21 19:28 40.81794 28.75585 5997 ft 337 kts 105°
2026-04-21 19:28 40.81255 28.78531 5832 ft 325 kts 105°
2026-04-21 19:29 40.80731 28.81391 5635 ft 316 kts 105°
2026-04-21 19:29 40.80219 28.84173 5440 ft 307 kts 105°
2026-04-21 19:29 40.79722 28.86875 5242 ft 299 kts 105°
2026-04-21 19:29 40.79237 28.89511 5046 ft 292 kts 104°
2026-04-21 19:30 40.78760 28.92098 4876 ft 288 kts 104°
2026-04-21 19:30 40.78291 28.94642 4682 ft 282 kts 104°
2026-04-21 19:30 40.77834 28.97119 4482 ft 276 kts 104°
2026-04-21 19:30 40.77384 28.99551 4282 ft 270 kts 104°
2026-04-21 19:31 40.76922 29.01928 4087 ft 264 kts 110°
2026-04-21 19:31 40.75944 29.03955 3847 ft 257 kts 140°
2026-04-21 19:31 40.74440 29.05067 3591 ft 250 kts 167°
2026-04-21 19:31 40.72728 29.05150 3331 ft 242 kts 194°
2026-04-21 19:32 40.71221 29.04249 3094 ft 237 kts 219°
2026-04-21 19:32 40.70193 29.02633 2982 ft 227 kts 244°
2026-04-21 19:32 40.69724 29.00718 2951 ft 214 kts 263°
2026-04-21 19:32 40.69778 28.98826 2948 ft 202 kts 280°
2026-04-21 19:33 40.69972 28.97615 2963 ft 202 kts 282°
2026-04-21 19:33 40.70399 28.95221 2983 ft 198 kts 283°
2026-04-21 19:33 40.70713 28.93459 2959 ft 195 kts 283°
2026-04-21 19:33 40.71021 28.91717 2964 ft 196 kts 283°
2026-04-21 19:34 40.71329 28.89960 2969 ft 197 kts 283°
2026-04-21 19:34 40.71909 28.88327 2973 ft 200 kts 308°
2026-04-21 19:34 40.72915 28.87044 2962 ft 202 kts 325°
2026-04-21 19:34 40.74184 28.86290 2964 ft 202 kts 346°
2026-04-21 19:35 40.75581 28.86218 2971 ft 203 kts
2026-04-21 19:35 40.77923 28.88138 2979 ft 204 kts 55°
2026-04-21 19:35 40.78532 28.89847 2986 ft 204 kts 74°
2026-04-21 19:36 40.78688 28.91699 2973 ft 205 kts 96°
2026-04-21 19:36 40.78406 28.93547 2984 ft 205 kts 103°
2026-04-21 19:36 40.78088 28.95384 2976 ft 206 kts 103°
2026-04-21 19:36 40.77769 28.97218 2972 ft 207 kts 103°
2026-04-21 19:37 40.77444 28.99085 2970 ft 207 kts 103°
2026-04-21 19:37 40.77121 29.00927 2969 ft 207 kts 103°
2026-04-21 19:37 40.76607 29.02666 2948 ft 199 kts 130°
2026-04-21 19:37 40.75585 29.03744 2961 ft 180 kts 140°
2026-04-21 19:38 40.75077 29.05113 2961 ft 171 kts 84°
2026-04-21 19:38 40.75627 29.06513 2976 ft 177 kts 34°
2026-04-21 19:38 40.76339 29.07018 3002 ft 168 kts 26°
2026-04-21 19:38 40.77718 29.07735 2974 ft 156 kts 15°
2026-04-21 19:39 40.78745 29.08125 2996 ft 151 kts 15°
2026-04-21 19:39 40.79731 29.08512 2994 ft 148 kts 20°
2026-04-21 19:39 40.80465 29.09400 2994 ft 144 kts 65°
2026-04-21 19:39 40.80949 29.10592 2956 ft 150 kts 53°
2026-04-21 19:40 40.81550 29.11715 2982 ft 151 kts 57°
2026-04-21 19:40 40.82086 29.12901 2997 ft 148 kts 61°
2026-04-21 19:40 40.82564 29.14103 2966 ft 150 kts 63°
2026-04-21 19:40 40.83027 29.15336 2788 ft 150 kts 64°
2026-04-21 19:41 40.83478 29.16561 2578 ft 148 kts 65°
2026-04-21 19:41 40.83776 29.17373 2474 ft 143 kts 65°
2026-04-21 19:41 40.84200 29.18537 2269 ft 138 kts 65°
2026-04-21 19:41 40.84623 29.19678 1993 ft 142 kts 64°
2026-04-21 19:42 40.85050 29.20890 1524 ft 149 kts 66°
2026-04-21 19:42 40.85465 29.22188 1022 ft 158 kts 68°
2026-04-21 19:42 40.85820 29.23496 912 ft 141 kts 68°
2026-04-21 19:42 40.86120 29.24638 854 ft 119 kts 69°
2026-04-21 19:43 40.86363 29.25596 743 ft 107 kts 68°
2026-04-21 19:43 40.86712 29.26593 741 ft 129 kts 56°
2026-04-21 19:43 40.87220 29.27636 786 ft 134 kts 56°
2026-04-21 19:43 40.87672 29.28645 856 ft 122 kts 58°
2026-04-21 19:44 40.88184 29.29663 637 ft 135 kts 53°
2026-04-21 19:44 40.88659 29.30761 408 ft 138 kts 62°
2026-04-21 19:44 40.89069 29.31849 353 ft 125 kts 62°
2026-04-21 19:44 40.89454 29.32895 649 ft 123 kts 61°
2026-04-21 19:45 40.89746 29.33880 1325 ft 117 kts 71°
2026-04-21 19:45 40.90095 29.35059 1306 ft 160 kts 73°
2026-04-21 19:45 40.90361 29.36565 1696 ft 162 kts 78°
2026-04-21 19:45 40.91125 29.37369 1492 ft 171 kts 323°
2026-04-21 19:46 40.91093 29.35813 834 ft 196 kts 251°
2026-04-21 19:46 40.90704 29.34163 703 ft 183 kts 260°
2026-04-21 19:46 40.90406 29.32570 399 ft 173 kts 257°
2026-04-21 19:46 40.89952 29.31231 316 ft 148 kts 245°
2026-04-21 19:47 40.89562 29.30105 318 ft 122 kts 245°
2026-04-21 19:47 40.89409 29.29685 320 ft 0 kts 221°
2026-04-21 19:47 40.89408 29.29685 320 ft 1 kts 211°
2026-04-21 19:48 40.89396 29.29691 320 ft 3 kts 149°
2026-04-21 19:48 40.89391 29.29729 320 ft 6 kts 72°
2026-04-21 19:48 40.89437 29.29805 319 ft 17 kts 50°
2026-04-21 19:48 40.89509 29.29972 318 ft 26 kts 63°
2026-04-21 19:49 40.89603 29.30221 320 ft 34 kts 64°